Location: Bruch
(44.2051°N, 0.4120°E)
Time: 05:14:25
(UTC+00:00)

Cosmos 1937 Rocket - Pass Details

Date: 29 November 2020
Orbit: 745 x 781 km, 74.0° (Epoch: 24 January)

Event Time Altitude Azimuth Distance (km) Brightness Sun altitude
Rises 05:01:21 0° 184° (S) 3,175 6.8 -22.8°
Reaches altitude 10° 05:03:44 10° 180° (S) 2,258 6.0 -22.4°
Maximum altitude 05:08:41 52° 105° (ESE) 935 4.3 -21.5°
Drops below altitude 10° 05:13:42 10° 30° (NNE) 2,291 6.2 -20.6°
Sets 05:16:08 0° 26° (NNE) 3,226 6.9 -20.2°
